�������l�o���
Date,Time,MP-1(��Sv/h),MP-2(��Sv/h),MP-3(��Sv/h),MP-4(��Sv/h),MP-5(��Sv/h),MP-6(��Sv/h),MP-7(��Sv/h),MP-8(��Sv/h),����,����(m/s),���J
2021/06/22,00:00,0.630,0.940,0.597,1.148,0.825,0.374,0.652,0.606,�k,3.5,��
2021/06/22,00:10,0.630,0.939,0.597,1.150,0.823,0.374,0.652,0.606,�k,3.2,��
2021/06/22,00:20,0.630,0.940,0.596,1.147,0.825,0.374,0.651,0.607,�k,2.9,��
2021/06/22,00:30,0.631,0.938,0.596,1.149,0.825,0.377,0.652,0.607,�k,2.8,��
2021/06/22,00:40,0.630,0.936,0.598,1.148,0.823,0.374,0.651,0.605,�k,2.6,��
2021/06/22,00:50,0.632,0.939,0.596,1.148,0.823,0.376,0.652,0.606,�k�k��,2.3,��
2021/06/22,01:00,0.630,0.941,0.597,1.150,0.824,0.373,0.653,0.607,�k�k��,2.9,��
2021/06/22,01:10,0.632,0.938,0.595,1.151,0.823,0.373,0.653,0.606,�k�k��,2.8,��
2021/06/22,01:20,0.630,0.940,0.595,1.149,0.825,0.374,0.652,0.606,�k�k��,3.1,��
2021/06/22,01:30,0.629,0.939,0.595,1.149,0.823,0.372,0.652,0.607,�k�k��,2.9,��
2021/06/22,01:40,0.631,0.938,0.598,1.147,0.824,0.375,0.652,0.605,�k�k��,3.3,��
2021/06/22,01:50,0.631,0.938,0.596,1.148,0.822,0.374,0.653,0.606,�k�k��,3.2,��
2021/06/22,02:00,0.630,0.937,0.594,1.148,0.822,0.375,0.653,0.605,�k�k��,3.5,��
2021/06/22,02:10,0.630,0.937,0.596,1.151,0.824,0.373,0.651,0.606,�k,4.5,��
2021/06/22,02:20,0.631,0.939,0.596,1.153,0.822,0.375,0.651,0.607,�k,4.7,��
2021/06/22,02:30,0.631,0.936,0.596,1.148,0.823,0.375,0.652,0.606,�k�k��,4.3,��
2021/06/22,02:40,0.632,0.937,0.596,1.148,0.822,0.374,0.651,0.607,�k�k��,3.4,��
2021/06/22,02:50,0.631,0.939,0.595,1.146,0.825,0.374,0.652,0.606,�k�k��,3.9,��
2021/06/22,03:00,0.629,0.936,0.597,1.149,0.823,0.374,0.651,0.605,�k�k��,3.0,��
2021/06/22,03:10,0.630,0.936,0.596,1.148,0.824,0.375,0.652,0.607,�k�k��,2.5,��
2021/06/22,03:20,0.629,0.935,0.594,1.150,0.821,0.375,0.652,0.606,�k��,2.2,��
2021/06/22,03:30,0.630,0.934,0.596,1.148,0.821,0.374,0.651,0.606,�k�k��,2.8,��
2021/06/22,03:40,0.631,0.937,0.596,1.148,0.822,0.374,0.650,0.606,�k,2.3,��
2021/06/22,03:50,0.632,0.937,0.594,1.146,0.823,0.374,0.651,0.605,�k�k��,2.3,��
2021/06/22,04:00,0.630,0.936,0.596,1.149,0.823,0.373,0.651,0.607,�k��,1.2,��
2021/06/22,04:10,0.628,0.937,0.598,1.149,0.825,0.376,0.651,0.606,-,CALM,��
2021/06/22,04:20,0.631,0.937,0.595,1.148,0.822,0.376,0.652,0.605,-,CALM,��
2021/06/22,04:30,0.630,0.935,0.596,1.149,0.823,0.375,0.652,0.606,-,CALM,��
2021/06/22,04:40,0.631,0.934,0.597,1.148,0.823,0.374,0.650,0.606,-,CALM,��
2021/06/22,04:50,0.630,0.937,0.596,1.149,0.821,0.375,0.651,0.607,�k,0.9,��
2021/06/22,05:00,0.632,0.938,0.596,1.151,0.824,0.375,0.652,0.605,�k�k��,0.8,��
2021/06/22,05:10,0.630,0.936,0.596,1.149,0.823,0.374,0.651,0.605,-,CALM,��
2021/06/22,05:20,0.630,0.938,0.596,1.150,0.822,0.374,0.650,0.606,�k��,0.6,��
2021/06/22,05:30,0.631,0.937,0.596,1.147,0.823,0.374,0.652,0.605,�k,1.4,��
2021/06/22,05:40,0.630,0.937,0.596,1.147,0.824,0.374,0.652,0.606,�k,1.2,��
2021/06/22,05:50,0.631,0.938,0.597,1.148,0.822,0.374,0.652,0.606,�k��,1.2,��
2021/06/22,06:00,0.632,0.937,0.598,1.148,0.824,0.374,0.651,0.606,�k�k��,2.2,��
2021/06/22,06:10,0.633,0.936,0.597,1.150,0.823,0.374,0.651,0.607,�k�k��,2.0,��
2021/06/22,06:20,0.632,0.938,0.599,1.149,0.823,0.375,0.651,0.607,�k�k��,1.7,��
2021/06/22,06:30,0.629,0.935,0.598,1.148,0.823,0.374,0.650,0.606,�k�k��,1.5,��
2021/06/22,06:40,0.629,0.938,0.596,1.146,0.825,0.373,0.651,0.607,�k�k��,0.9,��
2021/06/22,06:50,0.633,0.936,0.597,1.150,0.824,0.375,0.653,0.607,�k,1.2,��
2021/06/22,07:00,0.629,0.939,0.598,1.148,0.823,0.373,0.651,0.607,�k,0.9,��
2021/06/22,07:10,0.631,0.939,0.596,1.147,0.822,0.372,0.653,0.607,�k�k��,1.5,��
2021/06/22,07:20,0.631,0.937,0.595,1.149,0.822,0.373,0.649,0.608,�k,1.5,��
2021/06/22,07:30,0.631,0.937,0.595,1.149,0.823,0.372,0.650,0.606,�k,1.5,��
2021/06/22,07:40,0.631,0.935,0.597,1.148,0.824,0.373,0.650,0.606,�k�k��,1.9,��
2021/06/22,07:50,0.630,0.936,0.595,1.148,0.822,0.372,0.651,0.604,�k,1.2,��
2021/06/22,08:00,0.629,0.933,0.595,1.149,0.820,0.370,0.649,0.604,�k�k��,1.2,��
2021/06/22,08:10,0.629,0.936,0.595,1.150,0.821,0.372,0.650,0.603,�k�k��,2.0,��
2021/06/22,08:20,0.628,0.933,0.596,1.148,0.821,0.372,0.649,0.603,�k��,2.3,��
2021/06/22,08:30,0.628,0.931,0.597,1.153,0.822,0.372,0.651,0.605,���k��,2.2,��
2021/06/22,08:40,0.630,0.933,0.596,1.149,0.823,0.373,0.650,0.603,�k��,1.7,��
2021/06/22,08:50,0.629,0.933,0.595,1.150,0.823,0.372,0.652,0.604,�k��,2.0,��
2021/06/22,09:00,0.631,0.934,0.595,1.152,0.820,0.370,0.651,0.603,�k��,2.6,��
2021/06/22,09:10,0.630,0.933,0.596,1.150,0.821,0.373,0.650,0.605,�k��,3.0,��
2021/06/22,09:20,0.631,0.932,0.595,1.151,0.822,0.371,0.652,0.605,�k��,2.8,��
2021/06/22,09:30,0.630,0.934,0.594,1.149,0.821,0.371,0.650,0.604,�k��,3.5,��
2021/06/22,09:40,0.631,0.934,0.594,1.148,0.822,0.372,0.651,0.605,�k�k��,3.9,��
2021/06/22,09:50,0.630,0.934,0.593,1.152,0.820,0.372,0.652,0.606,�k��,3.8,��
2021/06/22,10:00,0.631,0.935,0.595,1.148,0.824,0.373,0.650,0.605,�k��,4.1,��
2021/06/22,10:10,0.632,0.931,0.595,1.150,0.820,0.372,0.650,0.607,�k�k��,4.7,��
2021/06/22,10:20,0.633,0.938,0.596,1.153,0.823,0.372,0.651,0.604,�k��,3.8,��
2021/06/22,10:30,0.630,0.936,0.595,1.150,0.824,0.373,0.653,0.604,�k��,3.4,��
2021/06/22,10:40,0.632,0.936,0.597,1.151,0.823,0.374,0.649,0.606,���k��,3.1,��
2021/06/22,10:50,0.633,0.937,0.596,1.150,0.824,0.372,0.651,0.606,���k��,2.9,��
2021/06/22,11:00,0.630,0.936,0.597,1.150,0.825,0.374,0.651,0.606,��,2.0,��
2021/06/22,11:10,0.631,0.937,0.596,1.149,0.822,0.373,0.652,0.606,���k��,2.0,��
2021/06/22,11:20,0.633,0.935,0.596,1.151,0.824,0.372,0.653,0.605,���쓌,1.9,��
2021/06/22,11:30,0.632,0.938,0.596,1.150,0.825,0.373,0.654,0.606,���k��,1.5,��
2021/06/22,11:40,0.633,0.939,0.596,1.150,0.823,0.374,0.653,0.605,��,1.9,��
2021/06/22,11:50,0.632,0.937,0.598,1.149,0.824,0.373,0.652,0.607,���쓌,1.7,��
2021/06/22,12:00,0.632,0.938,0.596,1.147,0.824,0.373,0.651,0.606,���쓌,1.4,��
2021/06/22,12:10,0.631,0.939,0.597,1.146,0.825,0.373,0.651,0.607,�쓌,1.5,��
2021/06/22,12:20,0.631,0.940,0.596,1.148,0.824,0.373,0.651,0.606,�쓌,3.0,��
2021/06/22,12:30,0.633,0.940,0.596,1.148,0.824,0.372,0.650,0.605,�쓌,2.6,��
2021/06/22,12:40,0.631,0.940,0.596,1.148,0.825,0.373,0.650,0.605,�쓌,2.9,��
2021/06/22,12:50,0.631,0.939,0.596,1.148,0.825,0.374,0.651,0.605,�쓌,3.0,��
2021/06/22,13:00,0.631,0.938,0.595,1.150,0.825,0.374,0.652,0.605,�쓌,3.0,��
2021/06/22,13:10,0.632,0.938,0.597,1.151,0.825,0.374,0.652,0.606,�쓌,2.2,��
2021/06/22,13:20,0.631,0.937,0.596,1.150,0.827,0.371,0.653,0.604,�쓌,3.6,��
2021/06/22,13:30,0.631,0.937,0.595,1.148,0.824,0.372,0.652,0.605,�쓌,3.7,��
2021/06/22,13:40,0.633,0.939,0.598,1.149,0.825,0.374,0.650,0.605,�쓌,3.8,��
2021/06/22,13:50,0.631,0.937,0.599,1.148,0.825,0.373,0.650,0.605,�쓌,3.2,��
2021/06/22,14:00,0.634,0.938,0.597,1.148,0.827,0.373,0.651,0.604,���쓌,3.7,��
2021/06/22,14:10,0.633,0.939,0.596,1.149,0.828,0.374,0.651,0.604,�쓌,3.6,��
2021/06/22,14:20,0.631,0.935,0.595,1.149,0.824,0.372,0.651,0.605,�쓌,4.5,��
2021/06/22,14:30,0.632,0.939,0.595,1.148,0.825,0.374,0.652,0.605,�쓌,4.6,��
2021/06/22,14:40,0.631,0.938,0.595,1.148,0.826,0.373,0.652,0.605,�쓌,4.7,��
2021/06/22,14:50,0.635,0.937,0.595,1.150,0.825,0.372,0.651,0.604,�쓌,4.6,��
2021/06/22,15:00,0.633,0.938,0.595,1.148,0.826,0.373,0.652,0.603,��쓌,5.2,��
2021/06/22,15:10,0.630,0.938,0.595,1.148,0.824,0.372,0.652,0.605,�쓌,5.3,��
2021/06/22,15:20,0.632,0.938,0.596,1.150,0.827,0.374,0.652,0.605,�쓌,6.8,��
2021/06/22,15:30,0.632,0.937,0.596,1.151,0.827,0.373,0.651,0.605,�쓌,6.4,��
2021/06/22,15:40,0.630,0.940,0.595,1.150,0.826,0.372,0.650,0.604,�쓌,6.3,��
2021/06/22,15:50,0.632,0.940,0.595,1.149,0.826,0.373,0.651,0.605,�쓌,5.6,��
2021/06/22,16:00,0.629,0.940,0.594,1.147,0.824,0.373,0.652,0.604,�쓌,6.1,��
2021/06/22,16:10,0.631,0.940,0.598,1.150,0.827,0.372,0.650,0.605,�쓌,5.4,��
2021/06/22,16:20,0.631,0.939,0.596,1.151,0.827,0.374,0.652,0.605,���쓌,5.8,��
2021/06/22,16:30,0.631,0.939,0.596,1.152,0.826,0.374,0.652,0.605,�쓌,5.1,��
2021/06/22,16:40,0.634,0.938,0.596,1.152,0.825,0.375,0.650,0.603,�쓌,5.1,��
2021/06/22,16:50,0.631,0.938,0.597,1.150,0.824,0.373,0.651,0.603,�쓌,5.7,��
2021/06/22,17:00,0.633,0.940,0.598,1.153,0.826,0.373,0.650,0.605,��쓌,5.9,��
2021/06/22,17:10,0.635,0.939,0.596,1.153,0.825,0.372,0.651,0.605,��쓌,4.5,��
2021/06/22,17:20,0.632,0.939,0.598,1.154,0.826,0.374,0.651,0.607,��쓌,3.7,��
2021/06/22,17:30,0.632,0.938,0.599,1.154,0.823,0.373,0.650,0.603,��쓌,4.4,��
2021/06/22,17:40,0.634,0.939,0.598,1.154,0.825,0.372,0.651,0.605,�쓌,4.4,��
2021/06/22,17:50,0.633,0.939,0.596,1.152,0.826,0.373,0.653,0.606,��쓌,4.0,��
2021/06/22,18:00,0.633,0.939,0.599,1.152,0.824,0.374,0.649,0.608,��쓌,3.7,��
2021/06/22,18:10,0.634,0.942,0.599,1.152,0.824,0.373,0.653,0.606,��쓌,3.8,��
2021/06/22,18:20,0.633,0.940,0.600,1.153,0.825,0.373,0.651,0.607,��쓌,3.1,��
2021/06/22,18:30,0.633,0.941,0.600,1.153,0.826,0.372,0.652,0.607,��쓌,2.9,��
2021/06/22,18:40,0.635,0.941,0.598,1.155,0.826,0.373,0.652,0.605,��쓌,3.4,��
2021/06/22,18:50,0.632,0.942,0.599,1.155,0.827,0.372,0.652,0.606,��쓌,2.9,��
2021/06/22,19:00,0.633,0.940,0.598,1.153,0.826,0.373,0.651,0.607,��쓌,3.1,��
2021/06/22,19:10,0.635,0.941,0.599,1.153,0.827,0.374,0.651,0.608,��,3.4,��
2021/06/22,19:20,0.634,0.941,0.598,1.155,0.827,0.372,0.651,0.608,��,3.2,��
2021/06/22,19:30,0.634,0.943,0.598,1.153,0.824,0.372,0.652,0.606,��,3.3,��
2021/06/22,19:40,0.635,0.943,0.597,1.153,0.824,0.372,0.652,0.608,��,3.2,��
2021/06/22,19:50,0.633,0.942,0.597,1.154,0.826,0.373,0.652,0.608,��,3.9,��
2021/06/22,20:00,0.635,0.945,0.596,1.155,0.826,0.374,0.653,0.607,��쓌,3.6,��
2021/06/22,20:10,0.633,0.945,0.598,1.156,0.828,0.374,0.653,0.607,��쓌,3.2,��
2021/06/22,20:20,0.632,0.945,0.598,1.154,0.828,0.373,0.651,0.607,��,3.0,��
2021/06/22,20:30,0.634,0.945,0.598,1.156,0.827,0.372,0.652,0.608,��쓌,3.5,��
2021/06/22,20:40,0.633,0.943,0.600,1.154,0.828,0.374,0.652,0.605,��쓌,2.6,��
2021/06/22,20:50,0.634,0.944,0.598,1.152,0.826,0.372,0.652,0.606,��,2.3,��
2021/06/22,21:00,0.633,0.945,0.599,1.156,0.828,0.373,0.653,0.607,��쓌,2.3,��
2021/06/22,21:10,0.634,0.946,0.600,1.155,0.827,0.373,0.653,0.608,��,3.3,��
2021/06/22,21:20,0.634,0.942,0.598,1.154,0.828,0.373,0.653,0.608,��쓌,2.8,��
2021/06/22,21:30,0.633,0.945,0.599,1.154,0.828,0.373,0.653,0.608,��쓌,2.2,��
2021/06/22,21:40,0.633,0.944,0.598,1.152,0.828,0.373,0.652,0.608,��쓌,2.3,��
2021/06/22,21:50,0.634,0.943,0.600,1.155,0.828,0.374,0.652,0.607,��쓌,2.8,��
2021/06/22,22:00,0.633,0.945,0.600,1.155,0.830,0.373,0.652,0.607,��쓌,2.2,��
2021/06/22,22:10,0.635,0.943,0.598,1.153,0.827,0.372,0.653,0.606,��쓌,2.0,��
2021/06/22,22:20,0.634,0.943,0.599,1.154,0.829,0.375,0.652,0.607,��,2.0,��
2021/06/22,22:30,0.633,0.945,0.599,1.155,0.827,0.375,0.651,0.606,��,1.4,��
2021/06/22,22:40,0.634,0.945,0.599,1.154,0.830,0.374,0.653,0.606,�쐼,0.6,��
2021/06/22,22:50,0.634,0.946,0.599,1.155,0.828,0.373,0.654,0.606,�쐼,0.6,��
2021/06/22,23:00,0.634,0.945,0.598,1.152,0.827,0.375,0.651,0.607,��,0.8,��
2021/06/22,23:10,0.633,0.943,0.598,1.154,0.828,0.373,0.652,0.606,-,CALM,��
2021/06/22,23:20,0.634,0.946,0.599,1.154,0.829,0.375,0.652,0.607,-,CALM,��
2021/06/22,23:30,0.632,0.947,0.599,1.154,0.828,0.374,0.652,0.607,-,CALM,��
2021/06/22,23:40,0.633,0.943,0.600,1.155,0.829,0.374,0.653,0.607,-,CALM,��
2021/06/22,23:50,0.633,0.944,0.599,1.153,0.829,0.375,0.653,0.607,-,CALM,��
